GFSMW_prec_cloud_003.txt.gz
Cloud_Cover
0 0 0 0 0 0 0 0 0 0 0 0 0 0 0 0 0 0 0 0 0 0 0 0 0 0 0 0 20 16 11 1 5 0 0 0 0 0 0 0 0 0 0
0 0 0 0 0 0 0 0 0 0 0 0 0 0 0 0 0 0 0 0 0 0 0 0 0 0 0 2 5 2 0 0 13 7 0 0 0 2 0 0 0 0 0
0 2 5 0 0 0 0 0 0 0 0 0 22 11 0 0 0 0 3 0 0 0 0 0 0 0 0 0 5 3 2 2 19 25 0 0 0 0 0 0 1 0 0
0 0 0 0 0 0 0 0 0 0 0 21 3 0 0 0 2 17 12 14 0 0 0 0 0 0 0 0 5 5 3 10 5 6 15 10 3 0 0 0 0 0 0
5 0 0 3 0 0 0 0 0 0 0 3 3 0 0 3 26 22 0 10 21 0 0 0 0 0 0 5 5 5 5 5 6 5 4 0 0 2 0 0 0 0 0
5 0 0 0 4 1 0 0 0 0 0 0 1 0 0 0 17 1 0 0 0 0 0 0 0 0 2 0 3 5 52 43 13 5 5 2 5 0 0 0 0 0 0
4 0 0 0 0 0 0 0 0 0 0 0 0 0 0 0 0 0 0 0 0 0 0 0 0 4 0 13 5 4 27 5 6 5 22 0 5 3 3 5 0 0 0
0 4 0 0 0 0 0 0 0 0 0 0 0 0 0 0 0 0 0 0 0 0 0 5 5 5 5 5 30 5 10 55 6 5 5 7 4 3 5 5 46 6 2
5 1 0 0 0 0 0 0 0 0 0 0 0 0 0 0 0 0 0 5 0 0 0 1 5 5 9 5 10 26 46 80 39 44 5 5 35 5 2 7 5 2 14
3 5 0 0 0 0 0 0 0 0 0 0 0 0 0 0 2 88 8 45 22 5 5 5 5 3 3 28 48 82 11 39 88 87 5 68 26 5 3 5 8 5 5
1 2 0 0 0 0 0 0 0 0 0 0 0 0 2 18 100 74 65 82 31 100 94 100 75 5 15 28 5 5 10 27 24 70 20 57 24 12 3 5 2 7 16
0 0 0 0 0 0 0 0 0 0 0 0 0 0 0 0 67 98 39 50 99 100 100 96 73 54 90 30 5 9 16 55 77 100 92 98 6 85 5 2 0 5 5
0 0 0 0 0 0 0 0 0 0 0 0 0 0 44 99 38 71 96 100 100 100 100 100 100 100 100 100 48 28 59 37 38 100 92 80 77 5 1 98 30 91 100
0 0 0 0 0 0 0 0 0 0 0 0 0 2 62 96 31 15 99 99 100 100 100 100 100 100 100 99 99 69 100 100 98 100 100 100 60 47 91 5 93 100 81
0 0 0 0 0 0 0 0 0 5 5 5 30 93 8 4 53 72 49 100 100 100 100 100 100 100 100 100 100 100 100 100 100 100 100 100 72 100 6 100 100 100 31
0 0 0 0 0 0 0 0 3 3 0 1 5 5 5 10 23 75 5 97 100 100 100 100 100 100 100 100 100 100 100 100 100 100 100 98 100 21 5 97 96 45 99
0 0 0 0 0 0 0 0 0 0 0 0 5 5 26 23 13 5 8 99 100 100 100 100 100 100 100 100 100 100 100 100 100 100 99 100 78 11 79 88 91 65 100
0 0 0 0 0 0 0 0 0 0 5 5 6 41 49 32 66 67 10 29 99 93 99 100 100 100 100 100 100 100 100 100 100 100 100 43 95 100 100 100 100 100 100
0 5 0 0 0 0 0 0 0 4 5 5 31 69 54 95 65 81 17 63 6 71 100 100 100 100 100 99 100 100 100 100 100 100 100 97 100 100 100 97 100 35 78
5 1 0 0 0 0 0 0 82 30 5 13 46 61 61 49 46 69 84 88 49 27 99 100 100 99 100 100 100 100 100 100 100 100 100 100 100 100 100 100 100 94 5
46 5 4 4 0 0 0 0 3 13 1 21 97 93 100 75 36 84 100 46 35 5 13 88 100 100 100 100 100 100 100 100 100 100 100 100 96 84 100 100 95 5 14
14 81 59 45 49 5 0 0 0 16 80 84 100 99 100 100 100 100 67 36 56 48 86 97 96 100 100 100 98 100 96 90 60 99 100 63 99 100 100 79 6 4 5
97 100 100 100 98 9 62 5 56 95 100 96 100 100 100 100 99 68 5 23 26 54 5 70 95 100 100 89 100 100 100 100 100 100 15 7 27 100 90 8 2 3 4
77 41 5 5 5 12 4 1 53 97 98 100 100 100 96 96 85 81 4 6 55 60 100 100 100 100 94 50 81 93 68 86 34 6 5 53 71 4 0 0 1 4 5
66 40 60 33 3 2 10 30 48 52 33 71 100 100 94 77 100 87 100 80 27 30 100 100 100 41 35 6 29 66 5 3 30 5 0 0 0 0 7 9 3 2 5
100 100 100 10 24 3 12 37 31 46 78 100 100 78 38 12 89 84 24 91 100 98 100 100 60 14 11 6 12 5 8 99 13 0 0 0 0 0 6 1 66 59 5

GFSMW_prec_cloud_006.txt.gz
Cloud_Cover
0 0 0 0 0 0 5 16 3 11 12 0 6 12 1 12 0 4 9 6 7 14 8 21 16 9 4 10 1 0 0 0 5 0 4 0 0 1 0 0 0 0 0
0 0 0 0 0 0 4 15 24 13 4 12 5 9 36 21 34 64 42 23 39 20 16 15 7 5 0 24 0 2 1 0 4 0 0 0 22 20 1 0 5 3 0
0 0 0 0 0 0 0 0 0 14 10 0 6 18 0 1 18 24 16 38 55 48 21 23 0 8 0 0 8 17 5 0 26 2 0 2 0 9 3 7 0 1 0
0 0 0 0 0 0 0 0 0 0 8 5 7 0 0 1 0 0 0 2 19 4 22 6 16 0 0 0 0 0 4 0 0 0 0 0 0 0 12 4 0 1 5
5 0 0 0 0 0 0 0 0 0 0 2 4 0 1 0 0 0 0 0 0 0 0 0 0 0 0 2 2 0 5 4 5 5 4 7 0 0 5 5 12 4 7
1 2 0 0 0 1 4 0 0 0 0 0 15 5 0 0 0 0 0 0 0 0 0 1 0 0 0 0 5 5 3 1 3 5 54 5 5 2 7 70 8 1 0
1 0 0 0 0 0 0 0 0 0 0 0 0 6 8 0 0 0 0 0 0 0 0 8 0 11 3 2 5 3 1 5 5 7 6 41 4 16 5 66 62 19 31
0 0 0 0 0 0 0 0 0 0 0 0 0 0 0 0 0 0 0 2 1 0 0 1 0 75 73 5 4 0 18 97 22 37 40 31 56 77 98 96 54 86 33
0 0 0 0 0 0 0 0 0 0 0 0 0 0 0 0 0 0 0 4 2 4 5 9 99 37 100 98 19 28 2 51 20 5 22 77 71 55 98 97 71 99 71
0 0 0 0 0 0 0 0 0 0 0 0 0 0 0 0 0 0 8 25 40 35 74 81 70 91 64 100 50 46 96 100 86 65 53 100 100 100 100 99 99 100 87
0 0 0 0 0 0 0 0 0 0 0 0 0 0 0 2 15 34 100 48 45 15 96 92 20 99 70 86 5 84 97 47 73 98 100 100 100 100 100 100 100 100 96
0 2 0 0 0 0 0 0 0 0 0 0 0 0 0 0 0 69 12 41 6 29 91 100 100 100 100 80 100 98 100 100 100 100 100 100 100 100 100 100 100 100 77
0 0 0 0 0 0 0 0 0 0 0 0 0 0 0 0 4 6 14 44 44 53 87 100 100 100 100 100 22 66 100 100 100 100 100 100 100 100 100 100 100 100 85
0 0 2 0 0 0 0 0 0 0 0 0 0 0 1 0 5 5 10 53 18 2 79 100 100 100 100 100 66 100 100 100 100 100 100 100 100 100 100 100 100 99 51
0 1 5 0 0 0 0 0 0 0 0 0 0 0 9 25 61 43 23 7 38 52 77 100 100 100 100 100 100 100 100 100 100 100 100 100 100 100 100 100 67 74 100
0 9 100 6 0 0 0 0 0 0 0 0 0 0 31 66 36 49 36 5 67 5 99 100 100 100 100 100 100 100 100 100 100 100 100 100 100 100 100 90 68 100 100
0 0 95 6 0 0 0 0 0 0 0 0 0 0 17 31 80 100 93 94 44 5 5 86 98 100 100 100 100 100 100 100 100 100 100 100 100 100 100 100 98 100 100
0 0 5 1 0 0 0 0 0 0 0 0 0 0 10 37 79 100 98 100 51 14 17 0 1 10 8 100 29 30 84 100 100 100 100 100 100 100 100 100 100 100 83
0 2 0 0 0 0 0 0 0 0 0 0 0 86 5 43 99 100 86 97 95 95 49 15 20 85 91 68 80 91 28 79 100 98 100 100 100 100 100 100 100 100 100
0 0 0 0 0 0 0 0 0 0 0 0 0 21 8 56 100 100 91 100 100 82 72 39 83 13 12 24 90 59 98 99 100 100 100 100 100 99 100 100 100 94 24
0 0 0 0 4 0 0 0 3 0 4 0 0 8 24 56 92 100 100 100 100 100 91 74 69 26 78 100 72 19 81 80 92 97 85 100 100 100 100 64 3 49 54
12 3 0 2 0 0 0 29 28 52 6 5 9 85 92 100 92 85 85 100 100 100 100 3 94 49 95 80 46 97 100 93 88 48 35 30 28 5 3 37 0 0 5
5 18 5 5 5 40 83 100 99 69 12 57 100 99 100 100 100 100 100 100 100 98 47 51 99 100 37 36 100 100 100 100 100 23 31 1 0 0 21 4 0 2 5
100 100 74 51 62 14 20 100 9 11 1 26 61 66 92 98 100 100 96 89 100 64 36 76 57 100 100 100 100 52 100 88 8 31 5 4 9 7 13 0 8 3 1
77 98 100 87 16 19 100 80 86 90 36 51 67 100 100 100 94 100 100 100 83 60 37 39 84 100 100 100 25 65 60 87 94 10 5 5 5 5 24 46 22 1 0
47 100 99 29 100 98 100 100 100 73 99 98 73 24 13 26 85 41 20 84 34 100 100 100 49 66 47 94 100 93 80 89 92 65 92 99 10 0 5 24 6 0 0

GFSMW_prec_cloud_012.txt.gz
Cloud_Cover
0 0 0 0 0 0 0 0 2 0 28 0 0 0 0 71 32 1 18 0 58 4 0 0 0 100 1 70 100 0 0 0 2 0 34 3 98 0 79 3 4 7 62
0 0 0 0 0 0 0 0 0 0 0 0 0 0 4 7 4 68 4 71 3 0 73 0 0 25 4 33 0 0 0 2 30 0 0 94 100 100 79 5 5 5 59
0 0 0 0 0 0 0 0 0 0 0 0 0 0 0 40 40 65 30 53 3 0 78 0 0 8 9 0 0 0 0 3 85 30 13 0 45 90 85 99 10 4 99
0 0 0 0 0 0 0 0 0 0 0 0 0 0 0 0 40 8 80 0 0 0 8 1 0 0 0 0 0 2 1 0 45 97 0 0 1 14 99 95 99 61 90
0 0 0 0 0 0 0 0 0 0 0 0 0 0 0 0 0 0 0 69 0 0 10 4 2 0 0 0 0 0 0 0 1 4 96 83 0 1 25 12 95 100 100
0 0 0 0 0 0 0 0 0 0 0 0 0 0 0 0 0 94 49 0 0 0 0 4 0 0 0 0 0 0 0 0 0 4 10 76 32 100 82 26 9 5 100
1 0 0 0 0 0 0 0 0 0 0 0 0 0 0 0 0 0 0 0 0 0 0 0 0 1 5 5 5 7 5 5 2 3 5 53 74 0 3 11 42 81 98
0 0 0 0 0 0 0 0 0 0 0 0 0 0 0 0 0 0 0 0 0 0 0 0 2 5 38 11 76 99 80 10 82 6 5 22 61 16 98 100 81 90 94
1 0 0 0 0 0 0 0 0 0 0 0 0 0 0 0 0 0 0 0 0 0 0 1 5 5 74 99 100 44 7 37 74 91 5 18 68 98 71 100 100 100 98
0 5 0 0 0 0 0 0 0 0 0 0 0 0 0 0 0 0 0 0 0 0 0 2 1 5 6 65 11 48 5 7 84 73 65 56 26 18 88 100 75 76 100
0 1 0 0 0 0 0 0 0 0 0 0 0 0 0 0 0 0 0 0 0 0 0 0 0 2 4 6 25 8 5 5 5 20 7 28 36 58 92 92 100 100 100
8 97 2 0 0 0 0 0 0 0 0 0 0 0 0 0 0 0 0 0 0 0 0 0 0 2 5 5 6 7 5 5 78 99 99 100 100 100 100 100 100 100 100
5 62 5 0 0 0 0 0 0 0 0 0 0 0 0 0 0 0 0 0 0 0 0 0 0 1 4 87 55 100 93 100 96 100 99 25 41 65 94 85 20 76 100
0 12 10 32 0 0 0 0 0 0 0 0 0 0 0 0 0 0 0 0 0 0 0 0 3 5 10 16 68 66 72 100 91 47 99 5 52 74 28 100 60 92 61
0 3 5 1 0 0 0 0 0 0 0 0 0 0 0 0 0 0 0 0 0 0 0 1 5 62 5 13 5 3 38 65 48 55 99 5 5 16 45 6 33 98 86
1 0 5 5 0 0 0 0 0 0 0 0 0 0 0 0 0 0 0 0 0 0 5 8 39 15 41 5 5 5 2 5 84 100 89 5 59 100 100 27 66 95 35
17 0 0 0 0 0 0 0 0 0 0 0 0 0 0 0 0 0 0 0 0 0 15 11 45 71 54 20 5 0 3 99 100 100 97 5 43 100 100 100 100 84 92
5 1 0 0 0 0 0 0 1 4 2 0 0 0 0 0 0 0 0 0 0 11 44 72 100 100 87 100 56 10 58 100 92 27 42 80 68 100 97 92 98 43 94
100 64 1 0 4 0 0 0 0 5 3 0 0 0 0 1 1 0 0 1 39 73 100 100 100 100 100 100 68 90 92 61 90 100 20 90 98 97 100 100 10 74 100
100 80 2 0 4 5 0 0 0 3 0 0 0 5 1 5 5 0 1 15 100 100 100 100 100 100 95 84 69 49 94 74 74 37 8 56 72 84 94 97 100 56 86
99 0 56 0 5 0 0 0 0 0 5 5 5 5 5 5 3 3 4 100 100 90 68 100 100 51 46 98 55 37 11 7 2 5 33 100 39 84 55 77 60 5 9
100 59 56 5 2 0 0 0 0 0 5 5 5 5 5 5 8 42 99 99 95 98 100 100 90 100 100 68 27 8 15 39 23 16 27 52 49 47 100 72 99 9 24
14 4 0 2 5 5 0 0 0 0 0 1 5 5 5 46 100 78 96 100 100 100 100 86 2 11 32 73 76 45 21 73 46 98 97 25 48 29 99 38 6 27 5
99 7 0 0 2 5 25 81 54 30 13 5 7 85 98 96 97 100 100 100 100 100 100 68 10 5 10 45 0 3 36 80 10 100 38 86 55 97 78 5 5 16 34
2 0 0 0 0 0 2 4 11 29 29 32 96 100 99 100 100 100 99 100 100 100 89 41 11 5 5 5 1 0 0 5 2 7 47 84 5 5 5 42 100 94 100
0 0 7 19 19 73 76 13 5 100 81 71 63 100 100 100 100 95 90 89 82 31 31 9 5 17 40 3 0 0 0 2 0 0 0 0 0 83 100 100 100 100 100

GFSMW_prec_cloud_015.txt.gz
Cloud_Cover
0 0 0 0 0 0 0 0 2 0 2 0 0 0 0 2 4 0 62 0 0 0 0 0 0 0 68 2 20 3 0 0 0 0 0 0 91 1 1 0 4 6 95
0 0 0 0 0 0 0 0 0 0 0 0 0 0 0 0 0 0 0 0 24 0 0 0 0 0 0 0 0 0 0 0 0 2 0 1 91 14 68 5 14 3 1
0 0 0 0 0 0 0 0 0 0 0 0 0 0 0 0 0 5 67 100 2 0 0 0 0 0 0 5 0 0 0 0 0 1 1 6 3 100 6 89 27 57 16
0 0 0 0 0 0 0 0 0 0 0 0 0 0 0 0 0 0 0 32 11 0 0 0 0 0 0 2 0 0 0 0 0 2 0 0 0 16 92 37 0 41 29
0 0 0 0 0 0 0 0 0 0 0 0 0 0 0 0 0 0 16 96 0 0 0 0 0 0 0 1 4 5 5 2 0 0 0 0 0 44 5 5 44 71 92
0 0 0 0 0 0 0 0 0 0 0 0 0 0 0 0 0 0 0 0 0 0 0 0 0 1 5 5 5 9 5 5 5 0 0 0 0 0 0 4 4 79 97
3 0 2 0 0 0 0 0 0 0 0 0 0 0 0 0 0 0 0 0 0 0 0 0 0 5 5 9 87 86 9 5 8 5 2 3 0 0 1 3 3 3 37
99 5 4 0 0 0 0 0 0 0 0 0 0 0 0 0 0 0 0 0 0 0 0 0 0 0 11 5 9 5 5 2 5 5 16 26 5 1 4 5 6 5 5
100 86 5 0 0 0 0 0 0 0 0 0 0 0 0 0 0 0 0 0 0 0 0 0 0 0 0 1 1 5 5 2 0 0 2 5 5 5 5 46 93 100 100
100 45 5 0 0 0 0 0 0 0 0 0 0 0 0 0 0 0 0 0 0 0 0 0 0 0 4 5 5 5 5 5 4 4 1 3 50 5 82 96 19 5 42
87 0 0 0 0 0 0 0 0 0 0 0 0 0 0 0 0 0 0 0 0 0 0 0 0 0 0 0 22 5 5 5 5 5 5 5 31 20 14 32 15 5 5
41 16 3 0 0 0 0 0 0 0 0 0 0 0 0 0 0 0 0 0 0 0 0 0 0 0 0 5 6 4 6 87 77 17 25 22 1 38 5 25 97 100 5
22 5 4 2 0 0 0 0 0 0 0 0 0 0 0 0 0 0 0 0 0 0 0 0 0 0 5 5 5 5 2 5 75 96 50 64 45 100 10 22 95 11 21
100 80 2 5 0 1 0 0 0 0 0 0 0 0 0 0 0 0 0 0 0 0 0 0 0 3 5 5 53 62 22 5 3 5 14 92 100 100 42 22 99 66 92
100 72 2 5 4 0 0 0 0 0 0 0 0 0 0 0 0 0 0 0 0 0 0 0 0 0 5 5 5 39 73 57 4 77 88 95 100 100 23 61 66 87 95
76 95 64 5 3 0 0 0 0 0 0 0 0 0 0 0 0 0 0 0 0 0 5 5 3 0 5 5 46 34 97 5 5 0 53 100 100 100 46 51 100 100 100
98 78 100 7 4 1 1 0 0 0 0 0 0 0 0 0 0 0 0 0 0 0 5 5 3 4 11 29 50 87 89 77 31 6 100 99 93 100 96 85 97 100 100
5 49 100 100 5 2 2 0 0 0 0 0 0 0 0 0 0 0 0 0 5 5 5 2 42 35 100 100 100 100 100 11 0 8 83 97 22 100 92 100 100 100 100
4 89 45 98 100 55 1 0 5 5 2 4 4 3 0 1 0 5 5 5 5 5 14 85 99 100 100 100 100 100 100 94 93 90 98 71 62 100 79 48 100 100 100
0 0 97 100 100 36 3 0 0 0 0 0 0 5 5 5 5 0 5 4 0 76 100 100 100 100 100 100 100 97 100 100 100 36 8 26 100 57 60 100 100 99 84
0 3 5 19 74 75 7 5 2 0 0 0 10 7 5 2 0 0 0 10 73 91 98 100 100 100 100 82 5 45 94 100 100 75 46 84 56 87 100 100 79 28 89
0 0 71 51 5 1 0 4 8 0 0 0 18 8 3 3 13 5 21 72 35 49 100 100 100 100 51 49 43 65 71 62 51 37 2 6 49 100 81 33 19 58 70
0 0 3 89 78 4 0 0 0 11 5 0 13 100 7 2 1 7 11 76 10 37 60 88 100 37 8 30 45 20 1 67 10 0 45 78 60 42 24 76 95 100 8
0 0 0 0 79 90 61 5 3 0 2 65 6 96 93 53 5 5 5 5 12 32 98 94 26 16 13 35 71 95 100 98 3 11 50 29 43 60 6 4 2 0 2
0 0 0 0 7 100 100 100 79 36 69 85 98 100 100 85 80 93 81 12 46 99 16 38 24 32 44 26 23 25 33 34 0 1 58 84 36 0 0 0 0 92 100
100 100 42 83 14 16 77 89 100 6 92 99 100 100 100 100 93 39 92 98 59 27 21 95 100 100 75 33 5 12 6 34 2 0 0 0 0 0 0 0 0 0 1

GFSMW_prec_cloud_021.txt.gz
Cloud_Cover
0 0 0 0 0 0 0 0 0 5 0 0 0 0 0 0 0 0 0 0 0 0 0 0 0 0 0 0 0 0 0 0 0 0 0 0 0 0 0 2 0 0 0
0 0 0 0 0 0 0 0 4 5 0 0 0 0 0 0 0 0 0 0 0 0 0 0 0 0 0 0 0 0 0 0 0 0 0 0 0 0 0 0 31 43 5
0 0 0 0 0 0 0 0 0 0 0 0 0 0 0 0 0 0 0 0 0 0 7 13 0 0 0 0 0 0 0 0 0 0 0 0 0 0 0 0 76 2 5
0 0 0 0 0 0 0 0 0 0 0 0 0 0 0 0 0 0 0 0 0 5 0 0 0 0 7 0 1 0 0 0 0 0 0 0 0 0 0 0 0 0 1
0 0 0 0 0 0 0 0 0 0 0 0 0 0 0 0 0 0 0 0 0 0 0 0 0 0 0 0 0 0 0 0 2 5 5 0 0 0 5 5 0 0 0
0 0 0 0 0 0 0 0 0 0 0 0 0 0 0 0 0 0 0 0 10 7 0 0 0 0 0 0 0 0 0 0 5 0 5 5 5 2 5 5 3 0 0
5 2 7 3 0 0 0 0 0 0 0 0 0 0 0 0 0 0 0 3 20 11 1 0 2 0 0 0 0 0 0 0 3 5 5 5 4 0 0 0 2 0 0
4 5 7 3 2 0 0 0 0 0 0 0 0 0 0 0 0 0 0 0 0 0 0 0 0 0 0 0 0 0 0 0 0 7 5 7 5 5 0 0 5 5 2
74 5 5 6 98 18 72 0 0 0 0 0 0 0 0 0 0 0 0 0 0 0 0 0 0 0 0 0 0 5 5 4 0 0 76 55 4 5 5 0 1 5 5
5 27 5 21 52 79 7 4 2 0 0 0 0 0 0 0 0 0 0 0 0 0 0 0 0 0 0 0 0 1 5 5 2 1 100 54 5 4 5 1 0 4 5
0 7 5 7 22 84 83 95 95 79 0 0 0 0 0 0 0 0 0 0 0 0 0 0 0 0 0 0 0 0 0 2 4 25 92 6 5 11 4 0 0 14 5
2 3 94 100 31 46 86 99 100 100 1 0 0 0 0 0 0 0 0 0 0 0 0 0 0 0 0 0 0 0 0 5 4 8 68 5 10 18 5 9 0 2 31
0 0 41 5 42 5 10 97 71 15 48 1 0 0 0 0 0 0 0 0 0 0 0 0 0 0 0 0 0 0 0 3 71 100 100 77 16 58 49 88 55 99 81
0 0 0 72 69 4 5 5 94 100 100 51 0 0 0 0 0 0 0 0 0 0 0 0 0 0 0 0 0 0 0 31 100 100 100 100 100 100 32 98 87 55 9
2 4 0 17 11 4 5 50 4 50 84 48 0 0 0 0 0 0 0 0 0 0 0 0 0 0 0 0 0 0 0 6 98 100 100 100 100 100 53 75 70 17 92
0 0 4 1 0 37 36 75 35 5 5 4 0 0 0 0 0 0 0 0 0 0 0 0 0 0 0 0 0 0 2 5 78 100 100 100 100 100 22 98 100 63 33
0 0 0 4 0 22 99 93 92 58 5 0 0 0 0 0 0 0 0 0 0 0 3 0 0 0 0 0 5 27 95 80 100 100 100 100 100 52 18 92 86 37 67
0 0 0 0 3 2 0 100 100 62 50 1 4 3 0 0 0 0 13 20 8 13 32 1 0 0 0 0 4 50 100 100 100 100 100 100 100 90 9 33 63 96 63
0 0 0 0 0 0 0 73 100 93 67 16 0 0 0 14 0 0 13 53 91 26 42 33 0 0 0 19 37 94 100 100 100 100 100 100 100 76 40 95 100 100 35
0 0 0 0 0 0 0 0 0 0 0 94 100 25 86 92 6 0 5 45 94 89 67 36 17 12 7 62 84 100 100 100 100 100 100 100 100 100 100 100 100 86 44
0 0 0 0 0 0 5 5 4 2 3 5 85 100 100 58 42 4 20 47 99 100 100 98 95 38 25 59 95 100 100 100 100 100 100 100 100 100 100 94 37 44 95
4 0 0 0 0 0 0 23 4 4 88 96 84 100 66 100 100 79 43 92 100 100 100 100 100 92 63 49 88 100 100 100 100 100 100 100 100 100 100 100 87 93 8
17 42 22 0 0 0 0 0 4 3 5 48 64 14 12 100 100 69 60 100 95 100 100 100 100 100 100 100 100 100 100 100 100 100 100 100 100 100 100 100 100 47 6
0 0 1 10 16 17 12 0 0 0 0 5 1 1 24 91 100 100 100 100 100 100 100 100 100 100 100 100 100 100 100 100 100 100 98 96 88 91 74 100 88 5 5
0 2 51 0 0 0 0 0 7 0 3 5 20 94 100 100 100 100 100 100 100 100 100 100 100 100 100 100 100 100 100 100 95 100 97 98 69 70 4 5 6 5 5
6 63 3 3 4 1 0 0 0 62 3 84 98 100 97 100 100 100 100 100 100 100 100 100 100 100 100 100 100 100 100 100 100 100 100 97 62 16 6 5 5 44 2

GFSMW_prec_cloud_024.txt.gz
Cloud_Cover
0 0 0 0 0 0 0 0 0 0 0 0 1 3 0 0 0 0 0 0 0 0 0 0 0 0 0 0 0 0 0 0 0 0 0 0 0 3 0 0 0 0 0
0 0 0 0 0 0 0 0 0 0 0 0 0 0 0 0 0 0 0 0 0 0 0 0 0 0 0 0 0 0 0 0 0 2 1 0 0 0 0 0 0 0 2
0 0 0 0 0 0 0 0 0 0 0 0 0 0 0 0 0 0 0 0 0 0 0 0 0 0 0 0 0 0 0 0 1 5 1 5 3 0 0 0 0 1 4
0 0 0 0 0 0 0 0 0 0 0 0 0 0 0 0 0 0 0 0 0 0 0 0 0 0 0 0 0 0 0 0 0 2 5 9 15 5 1 3 0 0 0
0 0 0 0 0 0 0 5 0 0 0 0 0 0 0 0 0 0 0 0 0 0 0 0 0 0 0 0 0 0 0 0 0 0 2 5 69 17 5 5 2 0 0
0 0 0 0 0 0 0 0 0 0 0 0 0 0 0 0 0 0 0 0 0 0 0 0 0 0 0 0 0 0 0 0 1 3 5 62 83 12 5 5 7 42 65
0 0 0 2 0 0 0 0 0 0 0 0 0 0 0 0 0 0 0 0 0 13 0 0 0 0 0 0 0 0 0 0 0 0 4 12 85 100 96 86 81 31 35
4 0 5 5 0 1 3 0 0 2 0 0 0 0 0 0 0 0 0 0 0 0 0 0 0 0 0 0 0 0 0 0 0 0 0 16 96 42 22 61 45 14 5
0 2 5 5 5 5 5 2 0 0 0 0 0 0 0 0 0 0 0 0 0 0 0 0 0 0 0 0 0 0 0 0 0 0 0 4 32 41 55 64 96 100 100
58 72 2 2 3 48 20 0 0 5 0 0 0 0 0 0 0 0 0 0 0 0 0 0 0 0 0 0 0 0 0 0 2 4 1 6 90 14 8 57 63 100 69
5 100 59 26 4 4 4 6 36 28 4 0 5 31 0 0 0 0 0 0 0 0 0 0 0 0 0 0 0 0 0 0 0 0 0 3 27 42 28 77 90 88 69
1 2 4 48 26 1 5 1 11 71 22 42 77 100 99 0 0 0 0 0 0 0 0 0 0 0 0 0 0 0 0 0 0 0 5 10 96 97 99 100 17 77 6
1 5 0 5 5 4 4 5 3 7 6 5 13 99 100 5 0 0 0 0 0 0 0 0 0 0 0 0 0 0 0 0 0 2 5 94 100 100 100 99 95 14 31
0 0 0 0 1 2 0 2 5 0 0 39 36 48 100 92 5 4 0 0 0 0 0 0 0 0 0 0 0 0 0 0 0 1 5 68 100 100 100 100 68 37 57
5 3 0 0 0 0 0 0 0 0 0 0 16 83 50 95 100 61 3 0 0 0 0 0 0 0 0 0 0 0 0 1 1 5 71 97 100 100 100 100 99 34 99
0 4 22 5 1 0 4 4 5 6 6 4 2 3 0 0 0 2 0 0 0 0 0 0 0 0 0 0 0 0 2 5 5 5 42 100 100 100 73 100 58 100 100
0 0 0 2 5 5 5 5 55 77 92 63 18 5 4 0 0 0 0 0 0 0 0 0 0 0 0 0 0 0 6 7 5 5 41 85 100 83 100 100 100 100 100
0 0 0 0 0 0 1 2 0 1 100 100 100 82 90 69 0 5 0 0 0 0 0 1 0 0 0 0 0 5 7 5 5 16 60 100 96 100 100 100 100 100 100
0 0 0 0 0 0 0 0 0 0 15 97 48 67 100 99 5 5 3 0 0 0 0 2 18 0 0 6 2 2 5 14 5 49 100 100 95 100 100 100 100 100 96
0 0 0 0 0 0 0 0 0 0 0 0 12 100 100 100 76 70 73 97 88 60 48 54 13 2 5 57 11 7 16 71 72 100 100 100 96 100 100 100 100 8 56
0 2 0 0 0 0 0 0 0 0 0 5 4 79 100 52 72 100 100 86 100 100 90 91 99 99 66 74 73 100 100 100 100 100 100 100 84 100 97 82 61 34 100
39 3 4 0 0 0 0 0 0 3 99 84 48 6 2 12 18 7 16 99 93 98 92 100 100 100 82 80 99 100 100 100 100 100 100 100 100 63 83 84 52 91 100
18 30 5 1 5 2 0 2 4 5 5 44 14 5 61 77 100 89 24 92 84 87 100 100 100 100 100 100 100 100 100 100 100 100 100 100 100 100 100 100 100 100 100
5 5 5 10 4 3 0 0 5 5 5 34 51 16 2 91 61 39 98 100 100 91 98 100 100 100 100 100 100 100 100 100 100 100 100 100 100 100 100 100 100 100 100
5 5 5 4 1 0 0 0 0 13 2 0 3 10 33 22 15 84 100 100 99 100 100 100 100 100 100 100 100 100 100 100 100 100 100 100 100 100 100 100 100 100 100
1 0 13 0 15 1 0 0 0 1 87 8 0 0 0 0 96 100 100 100 100 100 100 100 100 100 100 100 100 100 100 100 100 100 100 100 100 100 100 100 100 100 100

GFSMW_prec_cloud_027.txt.gz
Cloud_Cover
0 0 0 0 0 0 0 0 0 0 0 0 0 0 0 0 0 0 0 0 0 0 0 0 0 0 0 0 0 0 0 0 0 5 5 5 0 0 1 0 0 0 0
8 0 0 0 0 0 0 0 0 0 0 0 0 0 0 0 0 0 0 0 0 0 0 0 0 0 0 0 0 0 0 0 0 0 5 27 7 5 5 5 5 5 4
1 0 0 0 0 0 0 0 0 0 0 0 0 0 0 0 0 0 0 0 0 0 0 0 0 0 0 0 0 0 0 0 0 0 20 59 50 20 5 5 8 5 5
0 0 0 0 0 0 0 0 0 0 0 0 0 0 0 0 0 0 0 0 0 0 0 0 0 0 0 0 0 0 0 0 0 0 4 19 61 82 67 27 87 45 10
0 0 0 0 0 0 0 0 0 0 0 0 0 0 0 0 0 0 0 0 0 0 0 0 0 0 0 0 0 0 0 0 0 0 0 0 0 5 11 13 14 8 27
0 0 0 0 0 0 0 0 0 0 0 0 0 0 0 0 0 0 0 0 0 0 0 0 0 0 0 0 0 0 0 0 0 0 0 0 0 6 55 37 74 76 100
0 0 0 0 0 0 0 0 0 0 0 0 0 0 0 0 0 0 0 0 0 0 0 0 0 0 0 0 0 0 0 0 0 0 0 0 0 0 29 74 40 95 100
0 0 0 0 0 0 0 0 0 0 0 0 0 0 0 0 0 0 0 0 0 0 0 0 0 0 0 0 0 0 0 0 0 0 0 0 0 2 19 71 70 19 27
0 0 0 0 0 0 0 0 0 0 0 0 0 0 0 0 0 0 0 0 0 0 0 0 0 0 0 0 0 0 0 0 0 0 0 0 0 0 3 6 6 50 49
0 0 0 0 0 0 4 0 0 0 0 0 0 0 0 0 0 0 0 0 0 0 0 0 0 0 0 0 0 0 0 0 0 0 0 0 2 5 14 11 10 19 0
1 6 20 75 46 37 5 5 0 0 0 0 0 0 2 0 0 2 0 0 0 0 0 0 0 0 0 0 0 0 0 0 0 0 0 5 5 5 5 5 0 5 9
56 97 93 97 94 93 19 5 2 2 5 5 5 7 20 6 73 94 80 0 0 0 0 0 0 0 0 0 0 0 0 0 0 0 0 1 4 8 71 63 11 11 2
17 5 23 5 100 98 25 4 4 1 0 1 0 1 4 29 74 92 85 5 5 2 0 0 0 0 0 0 0 0 0 0 0 0 0 5 42 63 68 46 100 51 4
5 4 5 5 9 68 5 4 4 0 0 0 5 9 0 0 6 69 100 94 65 23 3 0 0 0 0 0 0 0 0 0 0 0 6 56 74 38 86 100 53 11 94
4 5 5 2 0 2 4 0 0 0 0 0 0 0 0 0 0 0 5 13 5 1 0 0 0 0 0 0 0 0 0 0 0 5 96 83 10 5 5 70 27 20 100
0 0 0 0 2 4 0 0 0 2 3 0 5 1 0 0 0 0 0 0 0 0 0 0 0 0 0 0 0 0 0 0 5 5 14 8 5 5 5 100 21 95 100
0 0 0 0 0 3 5 2 0 45 52 5 5 4 5 3 3 0 0 0 0 0 0 0 0 0 0 0 0 0 0 0 4 5 3 5 86 35 73 98 65 38 8
0 0 0 0 0 0 0 0 3 3 5 90 5 9 84 100 56 23 2 0 5 5 0 0 0 0 0 0 0 0 0 10 44 5 3 16 70 70 81 97 5 51 100
0 0 0 0 0 0 0 0 0 1 1 0 5 36 85 13 5 5 5 5 13 6 0 0 0 0 0 0 0 0 0 60 12 32 5 79 100 99 100 98 30 71 95
0 0 0 0 0 0 0 0 0 0 0 0 0 13 100 5 5 9 65 17 16 14 93 17 4 1 0 30 0 16 93 87 6 42 59 99 100 100 99 100 86 60 51
0 0 0 0 0 0 0 0 0 0 0 0 0 0 1 1 17 74 98 100 74 100 100 32 3 32 98 54 67 75 100 68 100 100 96 100 100 100 100 100 100 87 16
0 0 0 0 0 0 0 0 0 0 0 0 0 0 0 0 1 2 56 57 100 98 100 100 98 64 100 100 99 100 100 100 100 100 100 100 100 100 100 100 100 84 89
0 0 0 0 0 3 1 2 5 4 0 0 0 0 0 0 0 0 0 21 89 99 100 100 100 100 100 100 100 100 100 100 100 100 100 100 100 100 100 100 100 100 100
0 3 3 3 1 0 1 5 5 5 4 0 0 2 1 5 5 4 48 20 34 92 100 100 100 100 100 100 100 100 100 100 100 100 100 100 100 100 100 100 100 100 100
0 0 1 2 5 4 0 0 2 5 5 0 0 0 0 2 5 0 7 11 1 38 67 9 62 100 100 100 100 100 100 100 100 100 100 100 100 100 100 100 100 100 100
0 0 0 0 0 0 0 0 0 0 0 0 0 0 3 0 0 14 93 100 90 100 100 94 100 100 100 100 100 100 100 100 100 100 100 100 100 100 100 100 100 100 100

GFSMW_prec_cloud_030.txt.gz
Cloud_Cover
0 0 0 0 0 0 0 0 1 0 0 0 0 0 0 0 0 0 0 0 0 0 0 5 0 5 22 8 6 15 1 0 19 7 5 5 34 44 42 57 49 27 48
2 0 0 0 0 0 0 0 0 0 2 0 0 0 0 0 0 0 0 0 0 0 0 30 13 4 40 0 10 0 2 0 0 0 3 9 5 5 8 8 17 15 55
10 0 0 0 0 0 0 0 0 0 3 0 0 0 0 0 0 0 0 0 0 0 0 4 0 8 0 52 4 5 0 0 0 0 4 4 19 3 38 20 25 7 93
0 0 0 0 0 0 0 0 0 0 10 0 0 0 0 0 0 0 0 0 0 0 0 0 0 0 0 18 1 22 0 0 0 0 0 0 0 42 68 90 82 53 30
0 0 0 0 5 0 0 0 0 0 0 0 0 0 0 0 0 0 0 0 0 0 0 0 0 0 0 4 2 5 0 0 0 0 0 0 0 0 2 98 25 50 56
0 0 0 0 0 0 0 0 0 0 0 0 0 0 0 0 0 0 0 0 0 0 0 0 0 0 0 0 32 34 0 0 0 0 0 0 0 1 5 5 9 15 31
0 0 0 0 0 0 0 0 0 0 0 0 0 0 0 0 0 0 0 0 0 0 0 0 0 0 0 0 5 41 2 0 0 0 0 0 0 5 5 10 5 3 34
0 0 0 0 0 0 0 0 0 0 0 0 0 0 0 0 0 0 0 0 0 0 0 0 0 0 0 0 1 7 0 0 0 0 0 0 0 5 66 5 5 0 100
0 0 0 0 0 0 0 0 0 0 0 0 0 0 0 0 0 0 0 0 0 0 0 0 0 0 0 0 0 0 0 0 0 0 0 0 4 5 71 6 2 26 100
0 0 0 0 0 0 0 0 0 0 0 0 0 0 0 0 0 0 0 0 0 0 0 0 0 0 0 0 0 0 0 0 0 0 0 0 5 37 34 5 0 82 96
0 0 0 0 0 0 0 0 0 0 0 0 0 0 0 0 0 0 0 5 76 87 0 0 0 0 0 0 0 0 0 0 0 0 0 0 5 5 5 4 0 52 5
4 4 0 0 0 0 0 0 5 0 0 0 0 0 0 0 0 5 5 30 100 99 13 0 4 5 5 5 2 0 0 0 0 0 0 2 5 5 5 5 5 17 48
0 0 0 0 3 5 3 1 3 0 0 0 0 3 0 0 0 0 0 48 5 4 5 5 5 5 5 4 0 0 0 0 0 0 0 0 5 4 2 77 4 7 9
0 4 0 4 5 5 49 13 5 4 0 0 0 2 26 5 0 0 0 0 2 5 4 14 5 4 0 0 0 0 0 0 0 0 0 0 3 0 5 5 5 4 4
0 1 5 5 5 5 12 62 93 23 8 2 0 0 0 0 0 0 0 0 0 0 0 0 0 0 0 0 0 0 0 0 0 2 0 0 0 68 5 5 5 8 5
0 2 5 27 66 5 5 5 5 88 13 4 4 2 5 5 0 0 0 0 0 0 0 0 0 0 0 0 0 0 0 0 0 0 0 0 45 46 6 6 9 33 13
0 0 0 0 3 4 1 0 0 0 0 0 1 5 3 5 8 2 0 0 0 0 0 0 0 0 0 0 0 0 0 0 0 0 0 2 59 76 5 5 6 5 30
0 0 0 0 0 0 0 0 0 0 0 0 9 54 28 4 47 99 62 8 9 0 5 24 5 0 0 0 0 0 0 0 0 0 1 14 14 14 100 100 6 20 33
0 0 0 0 0 0 0 0 0 0 0 0 5 5 5 0 0 6 100 5 5 4 2 6 22 5 1 2 4 3 6 94 100 4 0 18 71 100 100 100 100 100 100
0 0 0 0 0 0 0 0 0 0 0 0 0 2 0 5 0 4 5 5 0 2 1 0 4 98 100 100 100 5 1 0 5 5 5 94 100 75 89 100 100 100 100
0 0 0 0 0 0 0 0 0 0 0 0 0 0 0 0 0 1 5 5 5 5 5 2 100 100 100 77 99 64 57 66 11 12 59 91 100 100 100 100 100 100 100
5 0 0 0 0 0 0 0 0 0 0 0 0 0 0 0 0 0 0 0 0 0 0 64 35 98 31 86 73 98 65 78 100 99 80 100 100 100 100 100 100 100 100
0 0 0 0 0 0 0 0 0 0 0 0 0 0 0 0 0 0 0 0 0 0 0 0 9 4 0 41 99 100 64 11 100 99 100 100 100 100 100 100 100 100 100
0 0 0 0 0 0 0 0 0 0 0 0 0 0 0 0 0 0 2 0 0 0 0 0 0 0 0 0 62 100 100 68 100 100 96 100 100 100 100 100 100 100 100
0 0 0 0 0 0 0 0 3 2 0 0 0 0 0 0 0 0 0 0 2 1 3 2 1 3 0 23 24 100 98 100 100 100 100 100 100 100 100 100 100 100 100
0 0 0 0 0 0 0 0 0 0 0 0 0 0 0 0 0 0 0 87 62 93 100 92 54 0 11 94 100 100 100 100 100 100 100 100 100 100 100 100 100 100 100

GFSMW_prec_cloud_033.txt.gz
Cloud_Cover
0 0 0 0 0 0 2 0 0 0 0 0 0 0 0 0 0 0 0 0 0 0 0 67 40 0 4 1 0 0 8 87 0 12 0 10 5 14 60 62 98 78 100
0 0 0 0 0 0 0 0 0 0 0 0 0 0 0 0 0 0 0 0 2 1 35 1 61 14 90 0 0 0 99 2 0 44 5 27 4 6 96 20 5 18 75
0 0 0 0 0 0 0 0 0 0 0 0 0 0 0 0 0 0 0 0 0 0 100 16 0 28 0 24 9 0 1 97 0 0 43 55 100 12 10 5 74 38 59
0 0 0 0 0 0 0 0 0 0 0 0 0 0 0 0 0 0 0 0 0 0 8 0 1 0 0 55 2 0 0 0 0 0 0 0 5 100 100 68 15 55 64
0 0 0 0 0 0 0 0 0 0 2 0 0 0 0 0 0 0 0 0 3 0 0 27 0 0 0 1 0 4 0 0 0 0 0 0 5 5 84 100 100 25 87
0 0 0 0 0 0 0 0 0 0 0 0 0 0 0 0 0 0 0 0 0 0 0 0 4 0 0 5 6 5 9 0 0 0 0 0 5 20 4 19 18 87 70
0 0 0 0 0 0 0 0 0 0 0 0 0 0 0 0 0 0 0 0 0 0 0 0 0 0 0 0 0 0 2 2 0 0 0 0 5 5 5 0 32 99 39
0 0 0 0 0 0 0 0 0 0 0 5 0 0 0 0 0 0 0 0 0 0 1 0 0 0 0 0 0 0 4 0 0 0 0 0 5 5 0 2 57 61 28
0 0 0 0 0 0 0 0 0 0 1 5 1 0 0 0 0 0 0 0 0 0 0 0 0 0 0 0 0 0 0 0 0 0 0 0 4 5 4 2 1 52 15
0 0 0 0 0 0 0 0 0 0 5 5 0 0 0 0 0 0 0 0 0 0 0 43 0 0 0 0 0 2 3 0 0 0 0 0 2 3 0 5 5 3 5
0 0 0 0 0 0 0 0 0 0 0 0 0 0 0 0 0 0 0 0 0 0 90 100 85 9 0 0 0 4 2 0 0 0 0 0 0 1 0 0 5 41 5
0 0 0 0 0 0 0 0 0 0 0 0 0 0 0 0 0 0 0 0 4 99 100 8 0 2 77 95 38 5 0 0 1 0 0 0 0 0 0 0 0 5 5
0 0 0 0 0 0 0 0 0 0 0 0 0 0 0 3 0 0 0 0 1 0 0 0 0 0 3 16 4 0 0 0 0 0 0 0 0 0 0 0 5 5 5
0 1 2 2 0 0 0 0 0 0 0 0 0 0 0 0 0 0 0 0 0 0 0 0 0 0 0 0 0 0 0 0 0 0 0 0 0 0 0 0 2 1 4
0 0 0 0 0 0 0 0 0 0 0 0 0 0 0 0 0 0 0 0 0 0 0 0 0 0 0 0 0 0 0 0 0 0 0 0 0 0 0 0 3 1 5
0 0 0 0 0 0 1 5 5 69 99 14 1 0 0 0 5 3 0 0 0 0 0 0 0 0 0 0 0 0 0 0 0 0 0 0 0 0 3 5 5 6 20
0 0 0 0 0 3 5 5 2 4 4 5 97 92 32 8 5 38 5 5 2 0 0 0 0 0 0 4 5 2 2 0 30 58 99 23 99 8 0 0 94 100 85
0 0 0 0 0 0 0 0 0 1 0 3 1 1 31 29 2 5 2 5 5 4 0 0 0 0 0 0 0 2 55 91 98 48 14 4 0 0 0 99 99 78 86
0 0 0 0 0 0 0 0 0 0 5 1 0 0 0 2 5 4 0 5 5 5 5 1 0 0 0 0 6 43 22 75 96 82 18 18 57 43 18 81 100 100 100
0 0 0 0 0 0 0 0 0 0 4 5 2 0 0 0 0 3 0 0 0 3 5 2 0 0 0 0 0 48 100 100 97 8 5 5 93 81 100 100 100 100 100
0 0 0 0 0 0 0 0 0 0 4 2 2 0 0 0 0 0 0 0 0 0 0 0 0 0 0 0 49 74 24 16 5 4 47 62 77 100 100 100 100 100 100
0 0 0 0 0 0 0 0 0 0 0 0 0 0 0 0 0 0 0 0 0 0 0 0 0 0 0 0 10 6 62 5 5 56 97 76 100 36 100 100 100 100 100
0 4 0 0 0 0 0 0 0 0 0 0 0 0 0 0 0 0 0 0 0 0 0 0 0 0 0 0 34 26 5 0 1 5 10 67 79 100 100 100 100 100 100
0 0 2 0 0 0 0 0 0 0 0 0 0 0 0 0 0 0 0 0 0 0 0 0 0 0 0 0 0 1 12 69 42 75 11 57 41 100 100 100 100 100 100
9 0 0 0 0 2 5 4 0 0 0 0 0 0 0 0 0 0 0 0 0 0 0 0 0 0 0 0 0 0 0 9 37 100 100 100 100 100 100 100 100 100 100
6 18 15 4 2 1 3 3 0 24 7 0 0 0 0 0 0 0 0 38 15 26 100 99 56 3 56 23 63 100 93 76 93 100 100 100 100 100 100 100 100 100 100

GFSMW_prec_cloud_036.txt.gz
Cloud_Cover
0 0 0 0 0 0 0 0 0 0 0 0 0 0 0 0 0 0 0 0 0 0 0 3 60 0 2 0 0 0 66 76 0 0 0 0 0 0 100 100 98 99 100
0 0 0 0 0 0 0 0 0 0 0 0 0 0 0 0 0 0 0 0 4 4 0 1 0 6 39 4 0 0 71 0 0 14 75 83 11 98 90 73 92 100 100
0 0 0 0 0 0 0 0 0 0 0 0 0 0 0 0 0 0 0 0 0 18 21 0 0 34 6 99 0 0 1 18 0 0 14 100 100 28 77 17 48 62 51
0 0 0 0 0 0 0 0 0 0 0 0 0 0 0 0 0 0 0 0 0 1 0 0 0 0 0 0 0 0 0 0 0 0 0 0 0 9 61 67 34 80 69
0 0 0 0 0 0 0 0 0 0 0 0 0 0 0 0 0 0 0 0 1 0 0 0 0 0 0 0 0 0 0 0 0 0 0 0 0 0 5 98 94 18 31
1 0 0 0 0 0 0 0 0 0 0 0 0 0 0 0 0 0 0 0 0 0 0 0 0 0 0 0 0 0 0 0 0 0 0 5 0 2 0 99 99 35 21
0 0 0 0 0 0 0 0 0 0 0 0 0 0 0 0 0 0 0 0 0 0 0 0 0 0 0 0 0 0 0 0 0 0 0 1 5 4 0 11 82 29 13
5 1 0 0 0 0 0 0 0 0 0 0 0 0 0 0 0 0 0 0 0 0 0 0 0 0 0 0 0 0 0 5 0 0 0 0 0 0 0 0 26 48 8
42 10 0 0 0 0 0 0 0 0 0 0 5 1 0 0 0 0 0 0 0 0 0 0 0 0 0 0 0 0 0 0 0 0 0 0 0 0 0 0 0 2 1
5 5 0 0 0 0 0 0 0 0 0 0 3 5 3 0 0 0 0 0 0 0 0 0 100 80 3 4 1 2 4 5 0 0 0 0 0 0 0 0 0 0 4
5 5 0 0 0 0 0 0 0 0 0 0 0 5 5 0 0 0 0 0 0 0 0 12 98 17 0 0 5 26 4 5 0 0 0 0 0 0 0 0 0 0 0
88 5 2 0 0 0 0 0 0 0 0 0 5 5 1 0 0 0 0 0 0 0 0 17 87 2 0 0 0 0 5 0 0 0 0 0 0 0 0 0 0 0 0
5 5 2 0 0 0 0 0 0 0 0 0 4 2 0 0 0 0 0 0 0 0 4 5 5 1 0 0 0 0 0 0 0 0 0 0 0 0 0 0 0 0 0
3 1 1 0 0 0 0 0 0 0 0 0 0 0 0 0 0 0 0 0 0 0 0 0 0 0 0 0 0 0 0 0 0 0 0 0 0 0 0 0 0 5 0
2 65 4 1 0 0 0 0 0 0 0 0 0 0 0 0 0 0 0 0 0 0 0 0 0 0 0 0 0 0 0 0 0 0 3 2 0 0 0 0 0 0 0
0 2 0 34 77 1 0 0 0 0 0 0 0 0 0 0 0 0 0 0 0 0 0 0 0 0 0 0 0 3 1 2 2 1 2 0 0 0 3 0 1 0 16
0 0 0 1 0 0 0 0 0 0 0 0 0 0 1 0 0 0 0 4 0 0 2 5 0 0 0 0 0 0 0 0 0 0 0 0 0 5 5 5 67 14 100
0 0 0 0 0 0 0 0 0 0 0 0 0 5 2 5 5 14 46 5 8 5 2 1 5 5 0 0 0 0 0 0 0 9 31 5 17 22 5 5 10 100 100
0 0 0 0 0 0 1 2 0 0 0 1 2 5 1 0 0 1 1 4 3 1 1 2 4 5 4 1 0 0 0 0 0 2 4 4 3 12 88 20 36 100 96
0 0 0 0 0 0 0 0 0 0 0 0 2 5 5 0 0 0 0 0 10 3 0 0 1 0 2 5 5 5 5 0 2 5 2 4 5 80 100 63 16 100 100
0 0 0 0 0 0 0 5 5 5 4 5 5 5 30 33 5 0 0 0 0 1 7 3 0 0 0 0 0 0 0 0 0 2 0 2 3 3 10 70 35 100 100
0 0 0 0 0 0 0 0 1 4 4 2 2 5 5 5 5 4 0 0 0 1 0 2 0 0 0 8 7 14 50 4 62 5 5 4 56 2 1 22 5 100 100
0 0 0 0 0 0 0 0 0 0 0 0 0 0 0 0 0 0 0 0 0 0 0 2 8 8 1 7 28 32 35 57 100 90 47 42 79 8 57 0 4 69 100
8 29 0 0 0 0 0 0 0 0 0 0 0 0 0 0 0 0 0 0 0 1 0 28 26 1 2 1 0 2 17 56 43 22 36 100 84 48 100 91 31 34 100
22 0 0 2 0 0 0 0 0 0 0 0 0 0 0 0 0 0 0 5 0 0 8 5 0 0 2 28 49 32 12 1 0 0 0 20 70 100 49 42 71 79 100
0 0 1 19 4 0 0 0 0 0 0 0 0 0 0 0 0 0 0 6 54 93 100 100 80 55 79 100 100 100 44 68 28 6 61 74 93 67 41 76 52 100 100

GFSMW_prec_cloud_042.txt.gz
Cloud_Cover
20 74 2 0 0 0 0 0 0 0 0 0 0 0 0 0 0 2 0 5 5 5 15 0 12 1 16 20 0 0 0 0 0 36 5 46 63 5 42 10 71 33 65
63 12 94 0 0 0 0 0 0 0 0 0 0 0 0 0 0 0 0 0 3 2 5 5 5 5 0 0 0 0 0 0 0 0 0 8 45 11 32 69 13 85 64
100 50 49 6 0 0 0 0 0 0 0 0 0 0 0 0 0 0 0 0 1 5 0 0 0 0 0 0 0 0 0 0 0 0 0 0 0 2 5 5 74 100 98
98 100 32 63 0 0 0 0 0 0 0 0 0 0 0 0 0 0 0 1 5 5 0 0 0 0 0 0 0 0 0 0 0 0 0 0 0 0 0 0 0 1 97
100 100 100 35 0 0 0 0 0 0 0 0 0 0 0 0 0 0 0 0 6 4 0 0 0 0 0 0 0 0 0 0 0 0 0 0 0 0 0 0 0 0 0
93 98 100 69 0 0 0 0 0 0 0 0 0 0 0 0 0 0 0 0 0 0 0 0 0 0 0 0 0 0 0 0 0 0 0 0 0 0 0 0 0 0 0
97 67 29 2 0 0 0 0 0 0 0 0 0 0 0 0 0 0 0 0 0 0 0 0 0 0 0 0 0 0 0 0 3 5 0 0 0 0 0 0 0 0 0
8 5 36 2 0 0 0 0 0 0 0 0 0 0 0 0 0 0 0 0 0 0 0 0 0 0 0 0 0 0 0 0 0 5 0 0 0 0 0 0 0 0 0
5 0 5 0 0 0 0 0 0 0 0 0 0 0 0 0 0 0 0 0 0 0 0 0 0 0 0 0 0 0 0 0 0 0 0 0 0 0 0 0 0 0 0
5 2 0 0 0 0 0 0 0 0 0 0 0 0 0 0 0 0 0 0 0 0 0 0 0 0 4 22 3 5 0 0 4 0 0 0 0 0 0 0 0 0 0
0 0 0 5 5 0 0 0 0 0 0 0 0 0 0 0 0 0 0 0 0 0 0 0 0 0 0 70 5 0 0 0 0 0 0 0 0 0 0 0 0 0 0
0 0 5 44 5 0 0 0 0 0 0 0 0 0 0 0 0 0 0 0 0 0 0 0 0 0 0 0 1 0 0 0 0 0 0 0 0 0 0 0 0 0 0
0 0 3 5 5 0 0 0 0 0 0 0 0 0 0 0 0 0 0 0 0 0 0 0 0 0 0 0 0 0 0 0 0 0 0 0 0 0 0 0 0 0 0
0 0 0 3 0 0 0 0 0 0 0 0 0 0 0 0 0 0 0 1 5 0 0 0 0 0 0 0 0 0 0 0 0 0 0 0 0 0 0 0 0 0 4
0 0 0 2 4 1 5 0 0 0 0 0 0 0 0 0 0 0 0 0 5 2 0 0 0 0 0 0 0 0 0 2 0 0 0 0 0 0 0 0 0 0 0
0 0 0 2 5 1 5 0 0 0 0 0 0 0 0 0 0 0 0 1 5 4 0 0 0 0 0 0 0 0 4 0 0 0 0 0 0 0 0 0 0 0 0
0 0 0 0 0 0 0 1 0 0 0 0 0 0 0 0 0 0 2 5 5 0 0 0 0 0 0 0 0 3 5 0 0 0 0 1 5 4 10 5 2 4 5
0 0 0 0 0 4 3 5 2 0 0 0 0 0 0 0 0 0 0 1 0 1 0 0 0 0 0 1 7 21 0 0 0 0 0 0 0 2 45 56 69 85 16
0 0 0 0 0 0 0 0 0 1 0 0 0 1 5 5 4 5 5 2 0 0 0 0 4 9 19 34 5 0 0 0 0 5 5 3 5 4 5 4 4 10 1
0 0 0 0 0 0 0 2 1 5 5 4 2 1 40 93 18 37 5 4 0 0 0 5 5 5 5 0 0 16 0 0 0 0 1 2 3 7 8 10 16 8 27
0 0 0 0 0 0 4 52 80 100 99 88 13 5 5 100 100 100 41 2 4 0 3 5 0 0 0 3 22 16 0 0 19 3 0 0 0 12 60 89 96 60 9
0 0 0 0 0 0 0 0 0 67 81 8 88 99 100 100 92 100 100 84 5 54 26 4 1 0 0 49 62 36 62 17 90 84 71 68 66 84 95 100 90 96 98
0 0 0 0 0 0 0 0 7 0 10 11 9 7 84 84 87 78 11 5 5 16 5 5 14 5 4 1 84 86 40 41 41 17 10 10 2 10 55 100 100 95 100
0 0 0 0 0 0 0 0 0 0 0 0 0 0 0 0 2 4 3 2 3 2 0 32 14 5 3 0 21 51 88 88 68 33 16 8 39 97 95 97 98 99 98
0 0 0 0 0 0 0 0 0 0 0 0 0 0 0 12 0 42 36 2 0 1 2 1 0 3 11 37 79 52 30 52 67 94 90 60 48 57 56 56 56 70 96
0 0 0 0 0 0 0 0 0 0 0 0 0 3 2 17 9 39 100 98 82 70 98 96 52 23 79 100 100 100 100 100 100 100 69 37 51 45 40 38 33 54 56

GFSMW_prec_cloud_045.txt.gz
Cloud_Cover
3 2 0 0 0 0 0 0 0 0 0 0 0 0 0 0 5 0 0 0 5 7 18 5 5 0 0 26 0 0 0 5 1 5 6 5 57 29 94 100 100 99 100
5 1 0 3 0 0 0 0 0 0 0 0 0 0 0 0 0 0 0 5 5 6 5 7 22 0 0 0 0 0 0 0 0 9 26 3 3 5 1 53 74 81 98
19 8 2 0 3 0 0 0 0 0 0 0 0 0 0 0 0 2 2 5 4 4 4 0 0 0 0 0 0 0 0 0 0 0 0 0 0 0 0 0 16 34 2
65 5 4 25 5 4 0 0 0 0 0 0 0 0 0 0 0 0 2 5 5 5 0 0 0 0 0 0 0 0 0 0 0 0 0 0 0 0 0 2 0 0 0
5 39 44 8 61 10 0 0 0 0 0 0 0 0 0 0 0 0 0 4 5 5 5 0 0 0 0 0 0 0 0 0 0 0 0 0 0 0 0 0 0 0 0
9 85 26 66 23 47 1 0 0 0 0 0 0 0 0 0 0 0 0 0 4 7 0 0 0 0 0 0 0 0 0 0 0 0 0 0 0 0 0 0 0 0 0
6 92 100 9 0 15 4 0 0 0 0 0 0 0 0 0 0 0 0 0 0 0 0 0 0 0 0 0 0 0 0 0 0 1 0 0 0 0 0 0 0 0 0
74 14 100 74 0 1 4 0 0 0 0 0 0 0 0 0 0 0 0 0 0 0 0 0 0 0 0 0 0 0 0 0 0 0 0 0 0 0 0 0 0 0 0
94 100 89 47 0 0 0 0 0 0 0 0 0 0 0 0 0 0 0 0 0 0 0 0 0 0 0 0 0 0 0 1 0 0 0 0 0 0 0 0 0 0 0
36 100 96 51 25 0 0 0 0 0 0 0 0 0 0 0 0 0 0 0 0 0 0 0 0 0 0 0 5 4 0 0 5 2 0 1 0 0 0 0 0 0 0
5 55 36 91 22 1 0 0 0 0 0 0 0 0 0 0 0 0 0 0 0 0 0 0 0 0 0 0 0 1 4 3 0 0 1 0 0 0 0 0 0 0 0
5 5 5 51 66 0 0 0 0 0 0 0 0 0 0 0 0 0 0 0 0 0 0 0 0 0 0 0 0 0 0 0 2 0 6 0 0 0 0 0 0 0 0
0 72 46 4 6 16 0 0 0 0 0 0 0 0 0 0 0 0 0 0 0 0 0 0 0 0 0 0 0 0 0 0 0 0 0 0 0 0 4 1 0 0 0
0 2 2 2 6 54 3 0 0 0 0 0 0 0 0 0 0 0 0 0 0 0 0 2 0 0 0 0 0 0 0 0 0 0 0 0 0 0 0 0 0 0 0
0 0 0 0 6 63 4 0 0 0 0 0 0 0 0 0 0 0 0 0 0 0 4 5 5 0 0 0 0 0 0 0 0 2 2 0 0 0 0 0 0 0 0
0 0 0 0 0 5 4 0 0 0 0 0 0 0 0 0 0 0 0 0 0 0 0 0 1 0 0 0 0 0 0 0 0 5 0 0 0 0 0 0 0 0 0
0 0 0 0 0 1 4 0 0 0 0 0 0 0 0 0 0 0 0 0 0 0 0 0 4 1 0 0 0 0 0 3 5 0 0 0 0 0 3 4 5 5 5
0 0 0 0 0 1 4 3 4 0 0 0 0 0 0 0 0 0 8 23 0 0 0 0 2 1 0 0 0 0 45 65 0 0 0 0 0 0 0 0 0 4 5
0 0 0 0 0 0 0 5 4 0 0 0 0 0 3 5 0 0 0 0 19 15 0 2 5 0 0 0 55 40 3 0 0 0 0 2 4 4 4 5 0 5 15
0 0 0 0 0 1 0 3 2 0 0 1 2 0 8 5 4 4 5 5 0 4 0 8 1 0 0 9 26 20 3 0 2 4 5 5 2 35 89 32 51 51 33
8 0 0 0 0 0 0 4 5 5 42 6 0 1 72 88 99 30 38 5 0 0 0 5 2 0 5 46 70 10 0 0 0 0 0 1 0 5 23 59 93 94 66
0 2 4 2 0 0 0 0 19 5 5 12 0 5 4 63 47 22 14 8 5 1 5 1 5 3 5 23 62 18 62 0 0 0 1 0 0 48 100 100 98 100 100
5 0 0 1 0 0 0 0 5 5 5 5 3 11 2 3 84 93 94 5 5 17 7 12 100 100 93 6 77 54 30 34 10 1 6 2 46 96 98 98 98 100 100
5 5 0 2 18 0 0 0 3 4 16 54 92 100 100 96 69 58 34 100 94 77 98 93 54 25 51 9 17 71 69 81 96 70 27 75 88 100 100 100 100 60 64
5 5 5 2 2 1 0 0 0 0 1 0 0 1 40 96 100 100 100 98 74 40 5 5 8 5 21 14 59 46 47 53 100 100 100 90 100 100 100 59 60 64 97
5 5 5 38 5 1 0 0 0 0 0 0 0 4 1 18 38 100 100 100 99 96 100 98 58 99 85 100 100 100 100 100 100 100 100 100 100 100 100 60 44 45 84

GFSMW_prec_cloud_048.txt.gz
Cloud_Cover
1 0 0 0 0 0 0 0 0 0 0 0 0 0 5 2 0 0 0 0 5 5 3 4 0 0 0 0 0 3 0 50 9 0 2 40 99 0 0 0 0 1 5
5 1 0 0 0 0 0 0 0 0 0 0 0 0 3 4 0 0 0 0 5 2 3 0 0 0 0 0 0 0 0 46 0 0 0 0 0 0 0 0 0 0 0
5 5 0 0 4 4 0 0 0 0 0 0 0 0 0 1 0 0 0 0 0 4 0 0 0 0 0 0 1 0 0 0 0 0 0 0 0 0 0 0 0 0 0
7 5 0 0 0 1 1 0 0 0 0 0 0 0 0 0 0 0 0 0 0 1 0 0 0 0 10 0 0 0 0 0 0 0 0 0 0 0 0 0 0 0 0
5 74 2 0 0 0 5 0 0 0 0 0 0 0 0 0 0 0 0 0 0 0 5 0 0 0 0 0 0 0 0 0 0 0 0 0 0 0 0 0 0 0 0
6 83 8 2 13 1 3 4 0 0 0 0 0 0 0 0 0 0 0 0 0 0 4 0 0 0 0 0 0 0 0 0 0 0 0 0 0 0 0 0 0 0 0
6 5 68 59 0 0 0 1 39 0 0 0 0 0 0 0 0 0 0 0 0 0 0 0 0 0 0 0 0 0 0 0 0 0 0 0 0 0 0 0 0 0 0
5 5 83 99 4 0 0 0 1 2 0 0 0 0 0 0 0 0 0 0 0 0 0 0 0 0 0 0 0 0 0 0 0 0 0 0 0 0 0 0 0 0 0
5 46 28 69 74 0 0 0 0 1 0 0 0 0 0 0 0 0 0 0 0 0 0 0 0 0 0 0 0 0 0 4 5 0 0 0 0 0 0 0 0 0 0
3 8 68 70 74 2 0 0 0 0 0 0 0 0 0 0 0 0 0 0 0 0 0 0 0 0 0 0 0 0 4 27 12 4 0 0 0 0 0 0 0 0 0
4 5 5 42 92 30 0 0 0 0 0 0 0 0 0 0 0 0 0 0 0 0 0 0 0 0 0 0 0 0 0 3 1 0 0 0 0 0 0 0 0 0 0
4 83 40 16 6 5 1 0 0 4 0 0 0 0 0 0 0 0 0 0 0 0 0 0 0 0 0 0 0 0 0 0 0 0 0 0 0 0 0 0 0 0 0
5 91 95 5 5 40 3 0 0 0 0 0 0 0 0 0 0 0 0 0 0 0 0 0 0 0 0 0 1 0 0 0 0 0 0 0 0 0 0 0 0 0 0
5 7 8 5 5 1 4 0 0 0 0 0 0 0 0 0 0 0 0 0 0 0 0 0 0 0 0 5 5 5 0 0 0 0 0 0 5 0 0 0 0 0 0
0 0 3 98 5 5 5 5 2 0 0 0 0 0 0 0 0 0 0 0 0 0 0 0 0 0 2 5 7 5 5 0 0 0 0 4 0 0 0 0 0 0 0
0 0 0 24 16 38 8 5 2 0 0 0 0 0 0 0 0 0 0 0 0 0 0 0 0 0 0 5 0 5 0 0 0 0 1 3 0 3 1 0 0 0 5
0 0 0 0 5 37 5 5 0 0 0 0 0 0 0 0 0 0 0 0 0 0 0 0 0 0 0 0 1 0 0 0 0 0 5 0 0 1 0 32 12 5 0
6 0 0 0 0 5 3 5 0 0 0 0 0 0 0 0 0 0 0 0 0 0 0 0 0 0 0 0 0 5 0 0 0 2 2 0 0 0 1 0 2 5 5
74 0 0 0 3 4 4 0 0 0 0 0 0 0 0 0 0 0 0 0 0 0 0 0 0 0 0 0 0 6 0 0 5 5 0 0 1 5 5 4 5 7 99
100 6 0 0 7 75 5 0 0 0 0 0 0 0 0 0 0 0 0 0 13 1 0 3 5 1 0 6 5 25 0 0 5 5 0 0 5 5 5 1 0 19 33
98 19 8 14 35 11 5 4 4 0 0 0 0 0 0 4 5 3 4 0 2 22 43 30 4 5 5 3 4 30 4 1 8 16 2 0 1 13 31 31 25 30 84
65 98 100 75 6 0 4 0 2 2 2 5 3 0 0 5 85 86 5 5 5 14 20 28 40 29 14 34 41 10 64 1 5 2 4 3 0 25 44 93 100 100 100
97 35 75 7 5 0 1 5 3 3 5 50 60 50 1 2 5 58 5 6 23 5 24 38 37 22 6 22 73 60 24 23 22 9 0 5 49 55 85 100 100 100 100
100 60 13 34 14 5 73 41 5 3 19 70 100 100 100 2 2 85 9 39 54 40 7 45 8 5 98 100 92 76 85 88 66 25 12 40 98 100 100 100 100 100 100
100 27 9 33 37 5 5 100 98 98 98 81 47 90 96 28 0 58 71 76 99 70 31 36 16 28 63 33 60 43 29 38 59 73 97 100 100 100 100 100 100 100 100
42 96 85 33 23 5 5 2 10 3 5 5 5 7 14 15 29 62 69 99 98 100 100 99 55 80 79 100 100 100 100 100 100 100 100 100 100 100 100 100 100 54 23